Regional Weather Roundup
Issued by NWS

Home | Current Version | Previous Version | Text Only | Print | Product List | Glossary Off
Versions: 1 2 3 4 5 6 7 8 9 10 11 12 13 14 15 16 17 18 19 20 21 22 23 24 25 26 27 28 29 30 31 32 33 34 35 36 37 38 39 40 41 42 43 44 45 46 47 48 49 50

854
ASUS43 KOAX 290110
RWRNE

WEATHER ROUNDUP FOR NEBRASKA
NATIONAL WEATHER SERVICE OMAHA NE
800 PM CDT SAT MAY 28 2016

NOTES: SATELLITE DATA IS BEING USED TO AUGMENT CLOUD COVER ABOVE
       12000 FEET.
       "FAIR" INDICATES FEW OR NO CLOUDS BELOW 12,000 FEET WITH NO
       SIGNIFICANT WEATHER AND/OR OBSTRUCTIONS TO VISIBILITY.

  * THESE STATIONS DO NOT REPORT WEATHER SUCH AS RAIN...SNOW OR FOG.

NEZ001>004-019>022-054>056-290200-
NEBRASKA PANHANDLE

CITY           SKY/WX    TMP DP  RH WIND       PRES   REMARKS
SCOTTSBLUFF    CLOUDY    69  45  41 E16       29.98R
ALLIANCE       CLOUDY    63  52  67 SE6       29.99R
CHADRON        CLOUDY    58  51  78 NE8       30.00R
KIMBALL        CLOUDY    65  43  43 SW6       30.04R
SIDNEY         CLOUDY    68  46  45 W8        30.01R
$$

NEZ057>060-069>072-079>082-290200-
SOUTHWEST NEBRASKA

CITY           SKY/WX    TMP DP  RH WIND       PRES   REMARKS
NORTH PLATTE   SUNNY     68  51  54 SW7       29.94R
IMPERIAL       CLOUDY    73  49  42 CALM      29.97R
LEXINGTON      CLEAR     73  55  53 CALM      29.94R
MCCOOK         SUNNY     72  52  49 SW6       29.95R
OGALLALA       MOSUNNY   70  51  51 CALM      29.96R
$$

NEZ005>010-023>029-035>040-094-290200-
NORTH CENTRAL NEBRASKA

CITY           SKY/WX    TMP DP  RH WIND       PRES   REMARKS
VALENTINE      SUNNY     72  48  42 N6        29.93R
AINSWORTH      SUNNY     69  52  54 NE5       29.94R
BROKEN BOW     CLEAR     73  52  47 N6        29.93R
O`NEILL        PTCLDY    64  56  73 N7        29.93R
ORD            PTCLDY    69  57  65 NE5       29.92R
THEDFORD       LGT RAIN  70  52  53 E5        29.95R
$$

NEZ041-046>049-061>064-073>077-083>087-290200-
SOUTH CENTRAL NEBRASKA

CITY           SKY/WX    TMP DP  RH WIND       PRES   REMARKS
GRAND ISLAND   CLEAR     73  53  49 NW8       29.92R
AURORA         CLEAR     73  55  52 NW6       29.92R
HASTINGS       CLEAR     74  53  48 NW6       29.93R
HEBRON         CLEAR     74  56  53 CALM      29.93R
HOLDREGE       CLEAR     73  50  44 W6        29.94R
KEARNEY *      CLEAR     73  52  46 W5        29.94S
YORK           CLEAR     72  57  60 NW7       29.92R
$$

NEZ011>018-030>034-042>045-290200-
NORTHEAST NEBRASKA

CITY           SKY/WX    TMP DP  RH WIND       PRES   REMARKS
NORFOLK        CLOUDY    63  56  78 NW8       29.90R
ALBION         CLEAR     66  55  67 N6        29.92R
BLAIR          PTCLDY    70  57  62 W16G22    29.88R
FREMONT        CLEAR     67  56  68 NW14      29.89R
TEKAMAH        PTCLDY    68  55  63 NW17      29.86R
WAYNE          PTCLDY    63  57  82 NW12G21   29.89R
$$

NEZ050>053-065>068-078-088>093-290200-
SOUTHEAST NEBRASKA

CITY           SKY/WX    TMP DP  RH WIND       PRES   REMARKS
LINCOLN        CLEAR     74  57  55 W5        29.90R
OMAHA EPPLEY   PTCLDY    72  55  55 W16G22    29.86R
BEATRICE       CLEAR     72  57  59 W5        29.91R
FALLS CITY     CLEAR     74  59  59 W8        29.90R
NEBRASKA CITY  CLEAR     72  56  58 W10       29.90R
PLATTSMOUTH    CLEAR     73  57  57 W13       29.89R
$$

NEZ044-045-051>053-067-290200-
OMAHA AREA

CITY           SKY/WX    TMP DP  RH WIND       PRES   REMARKS
OMAHA EPPLEY   PTCLDY    72  55  55 W16G22    29.86R
BLAIR          PTCLDY    70  57  62 W16G22    29.88R
FREMONT        CLEAR     67  56  68 NW14      29.89R
MILLARD        PTCLDY    72  56  58 W12       29.88R
OFFUTT AFB     CLEAR     73  56  56 W12       29.87R
PLATTSMOUTH    CLEAR     73  57  57 W13       29.89R
WAHOO          FAIR      70  57  62 NW9       29.89R
$$




USA.gov is the U.S. government's official web portal to all federal, state and local government web resources and services.